CCA1448 ZPPP-ZBAA

Flight info

Callsign CCA1448
Flight time 3h 12m
Altitude 33100
Route NODIB W137 LPS/K0863S1070 A581 AGTIS W3 DS W4 VADMO W56 LEBUN/K0848S1100 W56 NUDKU/K0846S1070 W56 DUGEB
Aircraft B738/M-SDE2E3FGHIRWXY/LB1

Departure

Time 2026-05-09 06:08
Airport Kunming Changshui International Airport (ZPPP)

Arrival

Time 2026-05-09 09:20
Airport Beijing Capital International Airport (ZBAA)
Time Latitude Longitude Altitude Speed Heading
2026-05-09 05:15 25.10234 102.92543 6915 ft 0 kts 218°
2026-05-09 05:53 25.10239 102.92547 6917 ft 2 kts 218°
2026-05-09 05:53 25.10251 102.92557 6917 ft 2 kts 218°
2026-05-09 05:53 25.10262 102.92567 6917 ft 2 kts 218°
2026-05-09 05:54 25.10273 102.92579 6917 ft 2 kts 238°
2026-05-09 05:54 25.10280 102.92593 6917 ft 2 kts 251°
2026-05-09 05:54 25.10283 102.92610 6917 ft 2 kts 266°
2026-05-09 05:54 25.10282 102.92626 6917 ft 2 kts 281°
2026-05-09 05:55 25.10279 102.92639 6917 ft 0 kts 293°
2026-05-09 05:55 25.10276 102.92646 6917 ft 0 kts 296°
2026-05-09 05:57 25.10278 102.92641 6917 ft 1 kts 296°
2026-05-09 05:57 25.10286 102.92625 6917 ft 2 kts 302°
2026-05-09 05:57 25.10299 102.92605 6917 ft 3 kts 307°
2026-05-09 05:58 25.10315 102.92582 6917 ft 3 kts 307°
2026-05-09 05:58 25.10334 102.92555 6917 ft 4 kts 308°
2026-05-09 05:58 25.10358 102.92523 6917 ft 5 kts 308°
2026-05-09 05:58 25.10385 102.92484 6917 ft 7 kts 308°
2026-05-09 05:59 25.10420 102.92437 6917 ft 8 kts 308°
2026-05-09 05:59 25.10460 102.92381 6917 ft 9 kts 308°
2026-05-09 05:59 25.10505 102.92319 6917 ft 11 kts 308°
2026-05-09 05:59 25.10540 102.92274 6917 ft 7 kts 319°
2026-05-09 06:00 25.10595 102.92265 6917 ft 9 kts 22°
2026-05-09 06:00 25.10649 102.92309 6917 ft 10 kts 38°
2026-05-09 06:00 25.10709 102.92361 6917 ft 11 kts 38°
2026-05-09 06:00 25.10778 102.92420 6917 ft 13 kts 38°
2026-05-09 06:01 25.10854 102.92488 6917 ft 14 kts 39°
2026-05-09 06:01 25.10938 102.92560 6917 ft 16 kts 38°
2026-05-09 06:01 25.11030 102.92639 6917 ft 17 kts 38°
2026-05-09 06:01 25.11128 102.92725 6917 ft 18 kts 38°
2026-05-09 06:02 25.11232 102.92815 6917 ft 19 kts 38°
2026-05-09 06:02 25.11342 102.92911 6917 ft 20 kts 38°
2026-05-09 06:02 25.11455 102.93010 6917 ft 21 kts 38°
2026-05-09 06:02 25.11576 102.93115 6917 ft 22 kts 38°
2026-05-09 06:03 25.11703 102.93225 6917 ft 23 kts 38°
2026-05-09 06:03 25.11824 102.93332 6916 ft 22 kts 39°
2026-05-09 06:03 25.11951 102.93440 6916 ft 22 kts 37°
2026-05-09 06:03 25.12064 102.93540 6916 ft 19 kts 38°
2026-05-09 06:04 25.12176 102.93637 6916 ft 21 kts 38°
2026-05-09 06:04 25.12297 102.93742 6916 ft 22 kts 38°
2026-05-09 06:04 25.12422 102.93851 6916 ft 23 kts 38°
2026-05-09 06:04 25.12543 102.93957 6916 ft 20 kts 38°
2026-05-09 06:05 25.12656 102.94056 6916 ft 20 kts 38°
2026-05-09 06:05 25.12738 102.94128 6916 ft 11 kts 38°
2026-05-09 06:05 25.12800 102.94139 6916 ft 9 kts 323°
2026-05-09 06:05 25.12822 102.94112 6916 ft 2 kts 309°
2026-05-09 06:06 25.12839 102.94089 6916 ft 4 kts 309°
2026-05-09 06:06 25.12862 102.94057 6916 ft 5 kts 305°
2026-05-09 06:06 25.12868 102.94010 6916 ft 7 kts 251°
2026-05-09 06:06 25.12840 102.93976 6916 ft 0 kts 219°
2026-05-09 06:07 25.12796 102.93937 6916 ft 31 kts 218°
2026-05-09 06:07 25.12462 102.93646 6916 ft 89 kts 219°
2026-05-09 06:07 25.11840 102.93103 6917 ft 138 kts 218°
2026-05-09 06:08 25.10958 102.92336 6917 ft 180 kts 219°
2026-05-09 06:08 25.09916 102.91404 7155 ft 195 kts 220°
2026-05-09 06:08 25.08898 102.90448 7681 ft 198 kts 226°
2026-05-09 06:08 25.08027 102.89234 8132 ft 204 kts 237°
2026-05-09 06:09 25.07274 102.87998 8532 ft 212 kts 236°
2026-05-09 06:09 25.06402 102.86635 8758 ft 224 kts 234°
2026-05-09 06:09 25.05457 102.85218 8934 ft 238 kts 233°
2026-05-09 06:09 25.04430 102.83694 9065 ft 255 kts 233°
2026-05-09 06:10 25.03345 102.82080 9304 ft 269 kts 233°
2026-05-09 06:10 25.02185 102.80373 9692 ft 276 kts 233°
2026-05-09 06:10 25.01057 102.78719 10322 ft 274 kts 233°
2026-05-09 06:10 24.99900 102.77020 10782 ft 278 kts 233°
2026-05-09 06:11 24.98744 102.75310 11281 ft 279 kts 233°
2026-05-09 06:11 24.97585 102.73600 11763 ft 280 kts 233°
2026-05-09 06:11 24.96590 102.71751 12035 ft 290 kts 252°
2026-05-09 06:11 24.96419 102.69495 12276 ft 303 kts 281°
2026-05-09 06:12 24.97215 102.67324 12592 ft 316 kts 303°
2026-05-09 06:12 24.98775 102.65519 12993 ft 329 kts 318°
2026-05-09 06:12 25.00586 102.63952 13426 ft 340 kts 319°
2026-05-09 06:12 25.02349 102.62156 13862 ft 348 kts 309°
2026-05-09 06:13 25.03993 102.60114 14188 ft 362 kts 309°
2026-05-09 06:13 25.05862 102.58174 14476 ft 380 kts 321°
2026-05-09 06:13 25.08232 102.56815 14934 ft 395 kts 338°
2026-05-09 06:13 25.10970 102.56154 15508 ft 405 kts 351°
2026-05-09 06:14 25.13795 102.56117 16065 ft 415 kts
2026-05-09 06:14 25.16709 102.56583 16621 ft 424 kts 11°
2026-05-09 06:14 25.19530 102.57668 17202 ft 432 kts 19°
2026-05-09 06:14 25.22256 102.59057 17747 ft 438 kts 23°
2026-05-09 06:15 25.25023 102.60611 18236 ft 445 kts 24°
2026-05-09 06:15 25.27766 102.62199 18775 ft 449 kts 24°
2026-05-09 06:15 25.30532 102.63795 19282 ft 453 kts 24°
2026-05-09 06:15 25.33373 102.65413 19743 ft 459 kts 24°
2026-05-09 06:16 25.36261 102.67025 20255 ft 462 kts 24°
2026-05-09 06:16 25.39147 102.68615 20709 ft 467 kts 24°
2026-05-09 06:16 25.42049 102.70207 21154 ft 471 kts 24°
2026-05-09 06:16 25.45025 102.71832 21606 ft 476 kts 24°
2026-05-09 06:17 25.48007 102.73453 22031 ft 480 kts 24°
2026-05-09 06:17 25.51031 102.75097 22464 ft 484 kts 24°
2026-05-09 06:17 25.54064 102.76746 22925 ft 488 kts 24°
2026-05-09 06:17 25.57124 102.78411 23362 ft 492 kts 24°
2026-05-09 06:18 25.60213 102.80091 23800 ft 495 kts 23°
2026-05-09 06:18 25.63304 102.81773 24262 ft 498 kts 23°
2026-05-09 06:18 25.66418 102.83468 24706 ft 501 kts 23°
2026-05-09 06:18 25.69598 102.85201 25171 ft 504 kts 23°
2026-05-09 06:19 25.72738 102.86912 25506 ft 509 kts 23°
2026-05-09 06:19 25.75941 102.88657 25914 ft 512 kts 22°
2026-05-09 06:19 25.79168 102.90417 26298 ft 516 kts 22°
2026-05-09 06:19 25.82368 102.92164 26695 ft 519 kts 22°
2026-05-09 06:20 25.85624 102.93940 27075 ft 522 kts 22°
2026-05-09 06:20 25.88914 102.95736 27459 ft 525 kts 22°
2026-05-09 06:20 25.92209 102.97538 27788 ft 529 kts 21°
2026-05-09 06:20 25.95512 102.99343 28169 ft 531 kts 21°
2026-05-09 06:21 25.98852 103.01168 28417 ft 536 kts 21°
2026-05-09 06:21 26.02186 103.02990 28655 ft 540 kts 21°
2026-05-09 06:21 26.05543 103.04828 28807 ft 536 kts 21°
2026-05-09 06:21 26.08840 103.06643 29243 ft 526 kts 21°
2026-05-09 06:22 26.12174 103.08474 29520 ft 530 kts 20°
2026-05-09 06:22 26.15467 103.10280 29885 ft 531 kts 20°
2026-05-09 06:22 26.18785 103.12103 30339 ft 526 kts 20°
2026-05-09 06:22 26.22028 103.13893 30839 ft 520 kts 20°
2026-05-09 06:23 26.25268 103.15684 31347 ft 517 kts 19°
2026-05-09 06:23 26.28510 103.17474 31857 ft 514 kts 19°
2026-05-09 06:23 26.31690 103.19232 32355 ft 511 kts 19°
2026-05-09 06:23 26.34858 103.20987 32884 ft 508 kts 19°
2026-05-09 06:24 26.38012 103.22732 33426 ft 504 kts 19°
2026-05-09 06:24 26.41178 103.24477 33510 ft 509 kts 18°
2026-05-09 06:24 26.47553 103.27985 33498 ft 511 kts 18°
2026-05-09 06:25 26.53921 103.31509 33482 ft 509 kts 19°
2026-05-09 06:25 26.60252 103.35029 33476 ft 509 kts 19°
2026-05-09 06:26 26.66630 103.38583 33460 ft 512 kts 19°
2026-05-09 06:26 26.72947 103.42116 33447 ft 507 kts 19°
2026-05-09 06:27 26.79276 103.45652 33437 ft 511 kts 19°
2026-05-09 06:27 26.85641 103.49210 33437 ft 509 kts 19°
2026-05-09 06:28 26.91980 103.52762 33431 ft 510 kts 19°
2026-05-09 06:28 26.98352 103.56333 33432 ft 511 kts 18°
2026-05-09 06:29 27.04711 103.59905 33432 ft 510 kts 19°
2026-05-09 06:29 27.11092 103.63487 33434 ft 514 kts 18°
2026-05-09 06:30 27.17555 103.67127 33430 ft 511 kts 19°
2026-05-09 06:30 27.23883 103.70697 33430 ft 511 kts 19°
2026-05-09 06:31 27.30244 103.74285 33422 ft 510 kts 19°
2026-05-09 06:31 27.36670 103.77837 33417 ft 512 kts 17°
2026-05-09 06:32 27.43120 103.81175 33411 ft 508 kts 16°
2026-05-09 06:33 27.52796 103.86112 33404 ft 509 kts 16°
2026-05-09 06:33 27.59266 103.89466 33395 ft 510 kts 17°
2026-05-09 06:34 27.68938 103.94528 33373 ft 512 kts 17°
2026-05-09 06:34 27.75366 103.97914 33359 ft 510 kts 16°
2026-05-09 06:35 27.81797 104.01298 33343 ft 511 kts 17°
2026-05-09 06:35 27.88232 104.04688 33328 ft 511 kts 17°
2026-05-09 06:36 27.94689 104.08098 33322 ft 512 kts 17°
2026-05-09 06:36 28.01177 104.11530 33308 ft 512 kts 17°
2026-05-09 06:37 28.07643 104.14952 33306 ft 513 kts 16°
2026-05-09 06:37 28.14138 104.18398 33315 ft 511 kts 16°
2026-05-09 06:38 28.20558 104.21806 33301 ft 511 kts 16°
2026-05-09 06:38 28.27011 104.25234 33298 ft 512 kts 16°
2026-05-09 06:39 28.33460 104.28625 33271 ft 506 kts 14°
2026-05-09 06:39 28.40069 104.30840 33262 ft 483 kts 355°
2026-05-09 06:40 28.43378 104.31026 33256 ft 472 kts 349°
2026-05-09 06:40 28.46635 104.30957 33239 ft 468 kts 347°
2026-05-09 06:40 28.53143 104.30530 33233 ft 466 kts 345°
2026-05-09 06:41 28.59608 104.30038 33232 ft 467 kts 345°
2026-05-09 06:41 28.66074 104.29601 33240 ft 466 kts 345°
2026-05-09 06:42 28.72589 104.29205 33250 ft 468 kts 346°
2026-05-09 06:42 28.79083 104.28839 33247 ft 466 kts 346°
2026-05-09 06:43 28.85592 104.28479 33233 ft 468 kts 346°
2026-05-09 06:43 28.92091 104.28127 33215 ft 467 kts 346°
2026-05-09 06:44 28.98559 104.27771 33200 ft 469 kts 346°
2026-05-09 06:44 29.05065 104.27415 33189 ft 466 kts 346°
2026-05-09 06:45 29.11599 104.27055 33200 ft 470 kts 346°
2026-05-09 06:45 29.18158 104.26697 33198 ft 467 kts 346°
2026-05-09 06:46 29.24664 104.26375 33202 ft 468 kts 347°
2026-05-09 06:46 29.31256 104.26743 33205 ft 482 kts 355°
2026-05-09 06:47 29.37918 104.27781 33203 ft 482 kts 358°
2026-05-09 06:47 29.44594 104.28992 33203 ft 484 kts 358°
2026-05-09 06:48 29.51237 104.30196 33206 ft 484 kts 358°
2026-05-09 06:48 29.57925 104.31376 33199 ft 482 kts 358°
2026-05-09 06:49 29.64517 104.32522 33198 ft 482 kts 358°
2026-05-09 06:49 29.71162 104.33659 33185 ft 482 kts 357°
2026-05-09 06:50 29.77804 104.34792 33185 ft 482 kts 357°
2026-05-09 06:50 29.84456 104.35931 33183 ft 480 kts 357°
2026-05-09 06:51 29.91037 104.37058 33180 ft 481 kts 358°
2026-05-09 06:51 29.97690 104.38197 33172 ft 480 kts 357°
2026-05-09 06:52 30.04277 104.39330 33169 ft 479 kts 358°
2026-05-09 06:52 30.10880 104.40460 33173 ft 482 kts 358°
2026-05-09 06:53 30.17540 104.41603 33179 ft 477 kts 358°
2026-05-09 06:53 30.24104 104.42750 33187 ft 481 kts 358°
2026-05-09 06:54 30.30697 104.43904 33190 ft 477 kts 358°
2026-05-09 06:54 30.37314 104.45064 33195 ft 477 kts 358°
2026-05-09 06:55 30.43895 104.46231 33184 ft 476 kts 358°
2026-05-09 06:55 30.50440 104.47373 33181 ft 477 kts 359°
2026-05-09 06:56 30.57039 104.48435 33168 ft 472 kts 355°
2026-05-09 06:56 30.60253 104.48583 33180 ft 460 kts 347°
2026-05-09 06:56 30.63430 104.48109 33181 ft 449 kts 338°
2026-05-09 06:57 30.69350 104.46127 33174 ft 437 kts 332°
2026-05-09 06:57 30.75141 104.43810 33184 ft 439 kts 332°
2026-05-09 06:58 30.80952 104.41605 33171 ft 445 kts 337°
2026-05-09 06:58 30.84042 104.41103 33183 ft 461 kts 349°
2026-05-09 06:58 30.87323 104.41406 33193 ft 476 kts
2026-05-09 06:59 30.90532 104.42432 33189 ft 490 kts 12°
2026-05-09 06:59 30.93700 104.44075 33184 ft 498 kts 19°
2026-05-09 06:59 30.99728 104.48158 33192 ft 502 kts 25°
2026-05-09 07:00 31.05591 104.52603 33187 ft 501 kts 26°
2026-05-09 07:00 31.11418 104.57109 33195 ft 499 kts 26°
2026-05-09 07:01 31.17235 104.61592 33197 ft 499 kts 26°
2026-05-09 07:01 31.23059 104.66045 33188 ft 497 kts 27°
2026-05-09 07:02 31.28902 104.70489 33193 ft 498 kts 26°
2026-05-09 07:02 31.34707 104.74905 33194 ft 496 kts 27°
2026-05-09 07:03 31.40483 104.79301 33182 ft 491 kts 27°
2026-05-09 07:03 31.46221 104.83673 33182 ft 494 kts 27°
2026-05-09 07:04 31.52023 104.88106 33194 ft 491 kts 27°
2026-05-09 07:04 31.57741 104.92476 33198 ft 490 kts 27°
2026-05-09 07:05 31.63434 104.96836 33187 ft 487 kts 27°
2026-05-09 07:05 31.69129 105.01198 33187 ft 487 kts 27°
2026-05-09 07:06 31.74862 105.05598 33192 ft 489 kts 27°
2026-05-09 07:06 31.80560 105.09982 33185 ft 483 kts 27°
2026-05-09 07:07 31.86195 105.14323 33205 ft 485 kts 28°
2026-05-09 07:07 31.91825 105.18668 33212 ft 482 kts 28°
2026-05-09 07:08 31.97524 105.23087 33215 ft 484 kts 30°
2026-05-09 07:08 32.02684 105.28149 33226 ft 490 kts 41°
2026-05-09 07:09 32.07116 105.34279 33215 ft 493 kts 49°
2026-05-09 07:09 32.11262 105.40830 33222 ft 496 kts 50°
2026-05-09 07:10 32.15312 105.47385 33219 ft 493 kts 50°
2026-05-09 07:10 32.19384 105.53917 33205 ft 494 kts 49°
2026-05-09 07:11 32.23500 105.60464 33213 ft 491 kts 49°
2026-05-09 07:11 32.27616 105.66979 33228 ft 491 kts 50°
2026-05-09 07:12 32.31710 105.73454 33219 ft 493 kts 50°
2026-05-09 07:12 32.35843 105.79991 33228 ft 493 kts 50°
2026-05-09 07:13 32.39934 105.86453 33227 ft 492 kts 48°
2026-05-09 07:13 32.44683 105.92168 33237 ft 480 kts 29°
2026-05-09 07:14 32.47620 105.94066 33257 ft 472 kts 18°
2026-05-09 07:14 32.50663 105.95514 33246 ft 470 kts 15°
2026-05-09 07:14 32.56816 105.98049 33250 ft 466 kts 13°
2026-05-09 07:15 32.62998 106.00478 33242 ft 466 kts 13°
2026-05-09 07:15 32.69186 106.02953 33252 ft 466 kts 13°
2026-05-09 07:16 32.75325 106.05460 33252 ft 465 kts 14°
2026-05-09 07:16 32.81484 106.08003 33241 ft 465 kts 14°
2026-05-09 07:17 32.87613 106.10551 33238 ft 465 kts 14°
2026-05-09 07:17 32.93657 106.13071 33222 ft 464 kts 14°
2026-05-09 07:18 32.99797 106.15636 33210 ft 464 kts 14°
2026-05-09 07:18 33.05936 106.18205 33210 ft 463 kts 14°
2026-05-09 07:19 33.12067 106.20773 33216 ft 464 kts 13°
2026-05-09 07:19 33.18222 106.23353 33223 ft 463 kts 13°
2026-05-09 07:20 33.24286 106.25897 33229 ft 464 kts 13°
2026-05-09 07:20 33.30393 106.28463 33225 ft 463 kts 13°
2026-05-09 07:21 33.36500 106.31034 33230 ft 466 kts 13°
2026-05-09 07:21 33.42630 106.33621 33238 ft 463 kts 13°
2026-05-09 07:22 33.48718 106.36193 33250 ft 464 kts 13°
2026-05-09 07:22 33.54863 106.38792 33254 ft 463 kts 13°
2026-05-09 07:23 33.60957 106.41374 33255 ft 464 kts 13°
2026-05-09 07:23 33.67016 106.43946 33256 ft 465 kts 13°
2026-05-09 07:24 33.73164 106.46560 33247 ft 464 kts 13°
2026-05-09 07:24 33.79294 106.49168 33248 ft 466 kts 13°
2026-05-09 07:25 33.85394 106.51767 33256 ft 465 kts 13°
2026-05-09 07:25 33.91474 106.54363 33267 ft 465 kts 12°
2026-05-09 07:26 33.97610 106.56986 33285 ft 466 kts 12°
2026-05-09 07:26 34.03701 106.59596 33304 ft 464 kts 12°
2026-05-09 07:27 34.09815 106.62215 33327 ft 467 kts 12°
2026-05-09 07:27 34.15968 106.64861 33329 ft 465 kts 12°
2026-05-09 07:28 34.22124 106.67509 33338 ft 466 kts 12°
2026-05-09 07:28 34.28239 106.70140 33336 ft 463 kts 12°
2026-05-09 07:29 34.34372 106.72786 33309 ft 464 kts 12°
2026-05-09 07:29 34.40436 106.75406 33285 ft 463 kts 12°
2026-05-09 07:30 34.46553 106.78053 33256 ft 464 kts 12°
2026-05-09 07:30 34.52684 106.80709 33234 ft 465 kts 12°
2026-05-09 07:31 34.58743 106.83338 33244 ft 466 kts 12°
2026-05-09 07:31 34.64851 106.85995 33240 ft 464 kts 12°
2026-05-09 07:32 34.70934 106.88650 33237 ft 464 kts 12°
2026-05-09 07:32 34.77006 106.91299 33237 ft 465 kts 12°
2026-05-09 07:33 34.86111 106.95283 33218 ft 461 kts 11°
2026-05-09 07:34 34.92154 106.98081 33217 ft 470 kts 17°
2026-05-09 07:34 34.95050 107.00062 33218 ft 481 kts 27°
2026-05-09 07:34 34.97650 107.02743 33228 ft 494 kts 37°
2026-05-09 07:35 35.02235 107.09026 33218 ft 499 kts 43°
2026-05-09 07:35 35.06629 107.15655 33211 ft 499 kts 44°
2026-05-09 07:36 35.10968 107.22282 33205 ft 502 kts 44°
2026-05-09 07:36 35.15357 107.28931 33214 ft 498 kts 44°
2026-05-09 07:37 35.19754 107.35549 33222 ft 499 kts 43°
2026-05-09 07:37 35.24126 107.42104 33220 ft 499 kts 43°
2026-05-09 07:38 35.28545 107.48705 33207 ft 499 kts 43°
2026-05-09 07:38 35.32909 107.55258 33197 ft 495 kts 43°
2026-05-09 07:39 35.37297 107.61832 33196 ft 497 kts 43°
2026-05-09 07:39 35.41718 107.68471 33191 ft 498 kts 43°
2026-05-09 07:40 35.46070 107.75028 33190 ft 496 kts 43°
2026-05-09 07:40 35.50438 107.81611 33188 ft 495 kts 43°
2026-05-09 07:41 35.54811 107.88221 33192 ft 498 kts 43°
2026-05-09 07:41 35.59159 107.94801 33183 ft 495 kts 44°
2026-05-09 07:42 35.63486 108.01366 33166 ft 494 kts 44°
2026-05-09 07:42 35.67838 108.07999 33170 ft 494 kts 44°
2026-05-09 07:43 35.72131 108.14555 33175 ft 495 kts 43°
2026-05-09 07:43 35.76486 108.21210 33193 ft 495 kts 43°
2026-05-09 07:44 35.80807 108.27811 33215 ft 497 kts 43°
2026-05-09 07:44 35.85117 108.34423 33226 ft 494 kts 43°
2026-05-09 07:45 35.89485 108.41119 33223 ft 496 kts 44°
2026-05-09 07:45 35.93794 108.47752 33229 ft 493 kts 43°
2026-05-09 07:46 35.98094 108.54393 33216 ft 494 kts 44°
2026-05-09 07:46 36.02353 108.61002 33210 ft 492 kts 44°
2026-05-09 07:47 36.06696 108.67731 33212 ft 494 kts 44°
2026-05-09 07:47 36.11020 108.74419 33206 ft 491 kts 44°
2026-05-09 07:48 36.15312 108.81065 33202 ft 494 kts 44°
2026-05-09 07:48 36.19588 108.87715 33206 ft 492 kts 44°
2026-05-09 07:49 36.23834 108.94360 33190 ft 490 kts 45°
2026-05-09 07:49 36.28046 109.00954 33200 ft 490 kts 45°
2026-05-09 07:50 36.32323 109.07652 33188 ft 490 kts 44°
2026-05-09 07:50 36.36545 109.14284 33174 ft 489 kts 45°
2026-05-09 07:51 36.40696 109.20959 33165 ft 489 kts 47°
2026-05-09 07:51 36.44563 109.27943 33162 ft 492 kts 50°
2026-05-09 07:52 36.48346 109.35071 33162 ft 492 kts 50°
2026-05-09 07:52 36.52232 109.41995 33146 ft 483 kts 43°
2026-05-09 07:52 36.54628 109.44843 33153 ft 471 kts 28°
2026-05-09 07:53 36.57414 109.46892 33142 ft 457 kts 17°
2026-05-09 07:53 36.63382 109.49123 33135 ft 443 kts
2026-05-09 07:54 36.69457 109.49985 33138 ft 435 kts 356°
2026-05-09 07:54 36.75471 109.50220 33125 ft 432 kts 354°
2026-05-09 07:55 36.81495 109.50380 33134 ft 433 kts 354°
2026-05-09 07:55 36.87513 109.50591 33135 ft 432 kts 355°
2026-05-09 07:56 36.93547 109.50849 33142 ft 433 kts 355°
2026-05-09 07:56 36.99612 109.51128 33144 ft 432 kts 355°
2026-05-09 07:57 37.05638 109.51414 33139 ft 433 kts 355°
2026-05-09 07:57 37.11735 109.51705 33137 ft 432 kts 355°
2026-05-09 07:58 37.17783 109.51994 33139 ft 433 kts 356°
2026-05-09 07:58 37.23784 109.52283 33142 ft 432 kts 356°
2026-05-09 07:59 37.30832 109.52621 33141 ft 431 kts 356°
2026-05-09 07:59 37.35861 109.52861 33135 ft 431 kts 356°
2026-05-09 08:00 37.41922 109.53152 33130 ft 430 kts 356°
2026-05-09 08:00 37.47919 109.53440 33128 ft 432 kts 356°
2026-05-09 08:01 37.53901 109.53726 33119 ft 430 kts 356°
2026-05-09 08:01 37.59928 109.54016 33126 ft 431 kts 356°
2026-05-09 08:02 37.65916 109.54306 33125 ft 430 kts 356°
2026-05-09 08:02 37.71923 109.54597 33129 ft 429 kts 356°
2026-05-09 08:03 37.77947 109.54889 33120 ft 429 kts 356°
2026-05-09 08:03 37.83949 109.55180 33111 ft 429 kts 356°
2026-05-09 08:04 37.89933 109.55470 33110 ft 429 kts 356°
2026-05-09 08:04 37.95922 109.55762 33111 ft 430 kts 356°
2026-05-09 08:05 38.01903 109.56054 33105 ft 428 kts 356°
2026-05-09 08:05 38.07898 109.56347 33105 ft 428 kts 356°
2026-05-09 08:06 38.13942 109.56641 33110 ft 428 kts 356°
2026-05-09 08:06 38.19888 109.56933 33107 ft 428 kts 356°
2026-05-09 08:07 38.25842 109.57223 33115 ft 429 kts 356°
2026-05-09 08:07 38.31848 109.57517 33118 ft 428 kts 356°
2026-05-09 08:08 38.38797 109.58065 33125 ft 431 kts
2026-05-09 08:08 38.43779 109.59103 33122 ft 434 kts
2026-05-09 08:09 38.49724 109.60645 33125 ft 435 kts
2026-05-09 08:09 38.55693 109.62250 33130 ft 434 kts
2026-05-09 08:10 38.61610 109.63820 33139 ft 434 kts
2026-05-09 08:10 38.67532 109.65372 33143 ft 434 kts
2026-05-09 08:11 38.73479 109.66920 33133 ft 434 kts
2026-05-09 08:11 38.79448 109.68443 33138 ft 434 kts
2026-05-09 08:12 38.88381 109.70670 33141 ft 433 kts
2026-05-09 08:12 38.94332 109.72155 33142 ft 433 kts
2026-05-09 08:13 39.01294 109.73901 33132 ft 433 kts
2026-05-09 08:13 39.06262 109.75150 33140 ft 433 kts
2026-05-09 08:14 39.12173 109.76650 33144 ft 433 kts
2026-05-09 08:14 39.18140 109.78185 33145 ft 432 kts
2026-05-09 08:15 39.24077 109.79716 33141 ft 432 kts
2026-05-09 08:15 39.30973 109.81494 33143 ft 432 kts
2026-05-09 08:16 39.36913 109.83028 33138 ft 431 kts
2026-05-09 08:16 39.42844 109.84561 33140 ft 433 kts
2026-05-09 08:17 39.48758 109.86092 33134 ft 433 kts
2026-05-09 08:17 39.54687 109.87260 33133 ft 429 kts
2026-05-09 08:18 39.60607 109.88037 33139 ft 428 kts 360°
2026-05-09 08:18 39.65570 109.88669 33136 ft 426 kts 360°
2026-05-09 08:19 39.72463 109.89600 33142 ft 428 kts
2026-05-09 08:19 39.78408 109.90444 33141 ft 427 kts
2026-05-09 08:20 39.84298 109.91296 33137 ft 426 kts
2026-05-09 08:20 39.89222 109.92014 33139 ft 427 kts
2026-05-09 08:21 39.96126 109.93025 33141 ft 427 kts
2026-05-09 08:21 40.02018 109.93893 33138 ft 426 kts
2026-05-09 08:22 40.07930 109.94764 33127 ft 425 kts
2026-05-09 08:22 40.13890 109.95652 33118 ft 428 kts
2026-05-09 08:23 40.18761 109.97095 33117 ft 439 kts 14°
2026-05-09 08:23 40.22400 109.99527 33115 ft 449 kts 26°
2026-05-09 08:23 40.24954 110.01946 33111 ft 454 kts 31°
2026-05-09 08:24 40.29057 110.06336 33103 ft 456 kts 33°
2026-05-09 08:24 40.34647 110.12633 33101 ft 456 kts 33°
2026-05-09 08:25 40.38671 110.17184 33101 ft 458 kts 33°
2026-05-09 08:25 40.44291 110.23505 33097 ft 456 kts 33°
2026-05-09 08:26 40.49115 110.28907 33095 ft 456 kts 33°
2026-05-09 08:26 40.53968 110.34336 33098 ft 456 kts 32°
2026-05-09 08:27 40.58734 110.39889 33104 ft 460 kts 38°
2026-05-09 08:27 40.62437 110.47012 33120 ft 485 kts 59°
2026-05-09 08:28 40.64220 110.55732 33122 ft 499 kts 76°
2026-05-09 08:28 40.64598 110.64913 33117 ft 504 kts 85°
2026-05-09 08:29 40.64434 110.74198 33113 ft 509 kts 88°
2026-05-09 08:29 40.64184 110.83532 33111 ft 508 kts 87°
2026-05-09 08:30 40.63983 110.92834 33107 ft 508 kts 86°
2026-05-09 08:30 40.63829 111.02121 33106 ft 508 kts 86°
2026-05-09 08:31 40.63698 111.11417 33098 ft 508 kts 86°
2026-05-09 08:31 40.63593 111.19144 33086 ft 507 kts 86°
2026-05-09 08:32 40.63462 111.28466 33079 ft 510 kts 86°
2026-05-09 08:33 40.63227 111.43988 33073 ft 509 kts 86°
2026-05-09 08:33 40.63075 111.53287 33069 ft 509 kts 86°
2026-05-09 08:34 40.62942 111.61038 33059 ft 510 kts 86°
2026-05-09 08:34 40.62745 111.71979 33054 ft 510 kts 87°
2026-05-09 08:35 40.62570 111.81370 33048 ft 509 kts 87°
2026-05-09 08:35 40.62388 111.90670 33054 ft 510 kts 87°
2026-05-09 08:36 40.62209 112.00005 33054 ft 507 kts 87°
2026-05-09 08:36 40.62004 112.09367 33063 ft 511 kts 87°
2026-05-09 08:37 40.61826 112.17172 33082 ft 511 kts 87°
2026-05-09 08:37 40.61573 112.28022 33086 ft 509 kts 87°
2026-05-09 08:38 40.61349 112.37385 33078 ft 511 kts 87°
2026-05-09 08:38 40.61116 112.46757 33077 ft 511 kts 87°
2026-05-09 08:39 40.60791 112.56107 33072 ft 511 kts 89°
2026-05-09 08:39 40.60251 112.65442 33064 ft 513 kts 91°
2026-05-09 08:40 40.59647 112.74847 33054 ft 515 kts 91°
2026-05-09 08:40 40.58890 112.84184 33057 ft 512 kts 92°
2026-05-09 08:41 40.58176 112.93523 33047 ft 513 kts 91°
2026-05-09 08:41 40.57529 113.02911 33046 ft 513 kts 91°
2026-05-09 08:42 40.56906 113.12165 32651 ft 498 kts 91°
2026-05-09 08:42 40.56602 113.16636 32399 ft 488 kts 91°
2026-05-09 08:42 40.56299 113.21066 32134 ft 479 kts 91°
2026-05-09 08:42 40.56002 113.25392 31878 ft 471 kts 91°
2026-05-09 08:43 40.55705 113.29681 31619 ft 467 kts 91°
2026-05-09 08:43 40.55412 113.33929 31376 ft 470 kts 90°
2026-05-09 08:43 40.55121 113.38182 31128 ft 473 kts 91°
2026-05-09 08:43 40.54823 113.42510 30876 ft 474 kts 91°
2026-05-09 08:44 40.54522 113.46819 30618 ft 474 kts 91°
2026-05-09 08:44 40.54215 113.51180 30366 ft 476 kts 90°
2026-05-09 08:44 40.53905 113.55530 30101 ft 476 kts 91°
2026-05-09 08:44 40.53600 113.59793 29843 ft 476 kts 91°
2026-05-09 08:45 40.53286 113.64167 29575 ft 477 kts 91°
2026-05-09 08:45 40.52970 113.68539 29310 ft 476 kts 92°
2026-05-09 08:45 40.52655 113.72858 29048 ft 478 kts 92°
2026-05-09 08:45 40.52335 113.77219 28789 ft 477 kts 92°
2026-05-09 08:46 40.52016 113.81527 28526 ft 477 kts 92°
2026-05-09 08:46 40.51694 113.85858 28269 ft 478 kts 92°
2026-05-09 08:46 40.51368 113.90221 28007 ft 478 kts 92°
2026-05-09 08:46 40.51044 113.94540 27748 ft 478 kts 92°
2026-05-09 08:47 40.50716 113.98884 27494 ft 478 kts 93°
2026-05-09 08:47 40.50425 114.03212 27240 ft 480 kts 91°
2026-05-09 08:47 40.50203 114.07613 26982 ft 478 kts 91°
2026-05-09 08:47 40.50029 114.11912 26722 ft 478 kts 90°
2026-05-09 08:48 40.49869 114.16279 26467 ft 479 kts 90°
2026-05-09 08:48 40.49710 114.20683 26213 ft 477 kts 90°
2026-05-09 08:48 40.49549 114.25000 25956 ft 477 kts 90°
2026-05-09 08:48 40.49380 114.29324 25704 ft 478 kts 90°
2026-05-09 08:49 40.49201 114.33752 25443 ft 479 kts 91°
2026-05-09 08:49 40.49020 114.38081 25190 ft 478 kts 91°
2026-05-09 08:49 40.48829 114.42481 24910 ft 478 kts 91°
2026-05-09 08:49 40.48638 114.46785 24629 ft 478 kts 91°
2026-05-09 08:50 40.48441 114.51138 24357 ft 478 kts 91°
2026-05-09 08:50 40.48241 114.55505 24082 ft 479 kts 92°
2026-05-09 08:50 40.48039 114.59856 23799 ft 476 kts 92°
2026-05-09 08:50 40.47839 114.64151 23527 ft 477 kts 92°
2026-05-09 08:51 40.47703 114.67070 23345 ft 478 kts 93°
2026-05-09 08:51 40.47427 114.72885 22981 ft 478 kts 94°
2026-05-09 08:51 40.47216 114.77302 22685 ft 478 kts 93°
2026-05-09 08:51 40.47005 114.81662 22406 ft 480 kts 94°
2026-05-09 08:52 40.46796 114.85978 22109 ft 478 kts 94°
2026-05-09 08:52 40.46580 114.90398 21984 ft 478 kts 94°
2026-05-09 08:52 40.46368 114.94741 21942 ft 479 kts 94°
2026-05-09 08:52 40.46151 114.99145 21771 ft 478 kts 94°
2026-05-09 08:53 40.45933 115.03523 21424 ft 474 kts 94°
2026-05-09 08:53 40.45720 115.07752 21021 ft 470 kts 95°
2026-05-09 08:53 40.45502 115.12029 20605 ft 467 kts 95°
2026-05-09 08:53 40.45284 115.16293 20096 ft 465 kts 95°
2026-05-09 08:54 40.45068 115.20498 19531 ft 460 kts 95°
2026-05-09 08:54 40.44853 115.24631 18867 ft 457 kts 95°
2026-05-09 08:54 40.44638 115.28725 18287 ft 442 kts 95°
2026-05-09 08:54 40.44431 115.32693 17742 ft 428 kts 95°
2026-05-09 08:55 40.44232 115.36469 17160 ft 415 kts 95°
2026-05-09 08:55 40.44032 115.40215 16549 ft 404 kts 95°
2026-05-09 08:55 40.43840 115.43805 15939 ft 394 kts 95°
2026-05-09 08:55 40.43649 115.47353 15307 ft 385 kts 95°
2026-05-09 08:56 40.43459 115.50846 14646 ft 379 kts 95°
2026-05-09 08:56 40.43283 115.54273 13986 ft 377 kts 94°
2026-05-09 08:56 40.43214 115.56569 13581 ft 375 kts 92°
2026-05-09 08:56 40.43185 115.61098 13395 ft 374 kts 91°
2026-05-09 08:57 40.43191 115.64516 13367 ft 376 kts 91°
2026-05-09 08:57 40.43190 115.68028 13120 ft 378 kts 92°
2026-05-09 08:57 40.43179 115.71473 12817 ft 373 kts 92°
2026-05-09 08:57 40.43162 115.74886 12519 ft 370 kts 93°
2026-05-09 08:58 40.43138 115.78249 12271 ft 370 kts 93°
2026-05-09 08:58 40.43108 115.81609 12027 ft 369 kts 93°
2026-05-09 08:58 40.43078 115.84964 11699 ft 368 kts 93°
2026-05-09 08:58 40.43044 115.88307 11516 ft 363 kts 94°
2026-05-09 08:59 40.43006 115.91665 11552 ft 367 kts 94°
2026-05-09 08:59 40.42969 115.94636 11513 ft 384 kts 94°
2026-05-09 08:59 40.42927 115.98201 11522 ft 383 kts 94°
2026-05-09 08:59 40.42894 116.01592 11600 ft 365 kts 94°
2026-05-09 09:00 40.42859 116.04944 11643 ft 367 kts 94°
2026-05-09 09:00 40.42825 116.08273 11654 ft 367 kts 94°
2026-05-09 09:00 40.42792 116.11643 11659 ft 367 kts 94°
2026-05-09 09:00 40.42758 116.14971 11652 ft 368 kts 94°
2026-05-09 09:01 40.42703 116.18320 11617 ft 369 kts 94°
2026-05-09 09:01 40.42633 116.21669 11679 ft 367 kts 95°
2026-05-09 09:01 40.42550 116.25016 11657 ft 366 kts 95°
2026-05-09 09:01 40.42474 116.28088 11610 ft 366 kts 94°
2026-05-09 09:02 40.42413 116.31235 11623 ft 367 kts 94°
2026-05-09 09:02 40.42362 116.33906 11609 ft 369 kts 93°
2026-05-09 09:02 40.42298 116.37270 11572 ft 367 kts 92°
2026-05-09 09:02 40.42278 116.40579 11512 ft 365 kts 90°
2026-05-09 09:03 40.42279 116.43948 11524 ft 365 kts 89°
2026-05-09 09:03 40.42274 116.47257 11536 ft 367 kts 90°
2026-05-09 09:03 40.42253 116.50621 11391 ft 371 kts 90°
2026-05-09 09:03 40.42215 116.54002 11090 ft 367 kts 90°
2026-05-09 09:04 40.42103 116.57310 10709 ft 362 kts 96°
2026-05-09 09:04 40.41611 116.60474 10332 ft 355 kts 111°
2026-05-09 09:04 40.40443 116.63317 9952 ft 347 kts 130°
2026-05-09 09:04 40.38795 116.65599 9593 ft 337 kts 143°
2026-05-09 09:05 40.37146 116.67314 9332 ft 318 kts 150°
2026-05-09 09:05 40.35264 116.68663 9076 ft 294 kts 165°
2026-05-09 09:05 40.33346 116.69286 8869 ft 275 kts 177°
2026-05-09 09:05 40.31463 116.69598 8811 ft 270 kts 179°
2026-05-09 09:06 40.29588 116.69855 8820 ft 272 kts 180°
2026-05-09 09:06 40.28319 116.70033 8827 ft 272 kts 179°
2026-05-09 09:06 40.25798 116.70414 8812 ft 272 kts 179°
2026-05-09 09:06 40.23918 116.70702 8690 ft 274 kts 179°
2026-05-09 09:07 40.22031 116.70995 8423 ft 271 kts 178°
2026-05-09 09:07 40.20159 116.71292 8146 ft 267 kts 178°
2026-05-09 09:07 40.18302 116.71582 7933 ft 265 kts 178°
2026-05-09 09:07 40.16479 116.71860 7749 ft 264 kts 178°
2026-05-09 09:08 40.14645 116.72144 7504 ft 263 kts 178°
2026-05-09 09:08 40.12838 116.72423 7259 ft 260 kts 178°
2026-05-09 09:08 40.11055 116.72699 7016 ft 258 kts 178°
2026-05-09 09:08 40.09256 116.72976 6768 ft 256 kts 178°
2026-05-09 09:09 40.07503 116.73244 6524 ft 253 kts 179°
2026-05-09 09:09 40.05748 116.73515 6279 ft 252 kts 178°
2026-05-09 09:09 40.03994 116.73787 6027 ft 251 kts 178°
2026-05-09 09:09 40.02236 116.74056 5744 ft 250 kts 178°
2026-05-09 09:10 40.00516 116.74322 5494 ft 249 kts 178°
2026-05-09 09:10 39.98801 116.74586 5254 ft 249 kts 177°
2026-05-09 09:10 39.97075 116.74850 5013 ft 249 kts 176°
2026-05-09 09:10 39.95325 116.75120 4818 ft 246 kts 176°
2026-05-09 09:11 39.94202 116.75294 4825 ft 247 kts 177°
2026-05-09 09:11 39.91908 116.75651 4814 ft 248 kts 177°
2026-05-09 09:11 39.90195 116.75913 4816 ft 248 kts 177°
2026-05-09 09:11 39.88450 116.76181 4801 ft 250 kts 177°
2026-05-09 09:12 39.86691 116.76453 4813 ft 249 kts 177°
2026-05-09 09:12 39.84938 116.76720 4613 ft 252 kts 176°
2026-05-09 09:12 39.83218 116.76985 4371 ft 248 kts 176°
2026-05-09 09:12 39.81504 116.77138 4128 ft 244 kts 188°
2026-05-09 09:13 39.79922 116.76446 3840 ft 241 kts 215°
2026-05-09 09:13 39.78823 116.74810 3529 ft 241 kts 245°
2026-05-09 09:13 39.78421 116.72697 3205 ft 242 kts 261°
2026-05-09 09:13 39.78272 116.70512 2919 ft 234 kts 263°
2026-05-09 09:14 39.78163 116.68471 2874 ft 223 kts 265°
2026-05-09 09:14 39.78432 116.66486 2863 ft 227 kts 294°
2026-05-09 09:14 39.79463 116.64945 2902 ft 228 kts 327°
2026-05-09 09:14 39.80916 116.64391 2863 ft 220 kts
2026-05-09 09:15 39.82413 116.64836 2875 ft 220 kts 16°
2026-05-09 09:15 39.83934 116.65158 2865 ft 219 kts 358°
2026-05-09 09:15 39.85455 116.64996 2883 ft 213 kts 352°
2026-05-09 09:15 39.86888 116.64738 2877 ft 207 kts 351°
2026-05-09 09:16 39.87849 116.64578 2893 ft 207 kts 351°
2026-05-09 09:16 39.91156 116.64072 2902 ft 197 kts 350°
2026-05-09 09:16 39.92493 116.63862 2715 ft 189 kts 351°
2026-05-09 09:17 39.93342 116.63728 2546 ft 180 kts 351°
2026-05-09 09:17 39.94954 116.63480 2263 ft 173 kts 351°
2026-05-09 09:17 39.95738 116.63353 2089 ft 170 kts 352°
2026-05-09 09:17 39.97298 116.63107 1830 ft 167 kts 352°
2026-05-09 09:18 39.98444 116.62933 1579 ft 164 kts 352°
2026-05-09 09:18 39.99565 116.62753 1373 ft 161 kts 352°
2026-05-09 09:18 40.00683 116.62576 1157 ft 159 kts 353°
2026-05-09 09:18 40.01767 116.62412 951 ft 157 kts 354°
2026-05-09 09:19 40.02493 116.62299 808 ft 155 kts 353°
2026-05-09 09:19 40.03922 116.62072 537 ft 154 kts 354°
2026-05-09 09:19 40.04977 116.61902 329 ft 152 kts 354°
2026-05-09 09:19 40.06027 116.61740 164 ft 151 kts 354°
2026-05-09 09:20 40.06994 116.61595 124 ft 120 kts 353°
2026-05-09 09:20 40.07606 116.61500 124 ft 57 kts 354°
2026-05-09 09:20 40.07854 116.61394 124 ft 28 kts 329°
2026-05-09 09:20 40.07978 116.61279 124 ft 6 kts 323°
2026-05-09 09:21 40.08006 116.61253 124 ft 5 kts 324°
2026-05-09 09:21 40.08043 116.61218 124 ft 8 kts 325°
2026-05-09 09:21 40.08092 116.61164 124 ft 8 kts 299°
2026-05-09 09:21 40.08098 116.61122 124 ft 9 kts 270°
2026-05-09 09:22 40.08097 116.61105 124 ft 7 kts 265°
2026-05-09 09:22 40.08095 116.61079 123 ft 10 kts 265°